| time (UTC) | temp F | wind direction | speed MPH | gust MPH | rain 1hr in | rain 24hr in | rain mn in | humidity % | barometer mb |
| 20260504034902 | 55 | 236 | 1.0 | 2.0 | 0.00 | 0.00 | 0.00 | 49 | 1001.1 |
| 20260504033902 | 56 | 245 | 0.0 | 0.0 | 0.00 | 0.00 | 0.00 | 50 | 1001.2 |
| 20260504032932 | 56 | 246 | 0.0 | 0.0 | 0.00 | 0.00 | 0.00 | 51 | 1001.4 |
| 20260504031902 | 56 | 242 | 0.0 | 0.0 | 0.00 | 0.00 | 0.00 | 49 | 1001.4 |
| 20260504030902 | 56 | 242 | 0.0 | 0.0 | 0.00 | 0.00 | 0.00 | 50 | 1001.6 |
| 20260504025903 | 56 | 242 | 0.0 | 0.0 | 0.00 | 0.00 | 0.00 | 49 | 1001.6 |
| 20260504025002 | 57 | 242 | 0.0 | 0.0 | 0.00 | 0.00 | 0.00 | 47 | 1001.6 |
| 20260504023902 | 57 | 238 | 0.0 | 0.0 | 0.00 | 0.00 | 0.00 | 48 | 1001.7 |
| 20260504022902 | 58 | 236 | 0.0 | 0.0 | 0.00 | 0.00 | 0.00 | 46 | 1001.7 |
| 20260504022002 | 59 | 248 | 0.0 | 0.0 | 0.00 | 0.00 | 0.00 | 44 | 1001.7 |
| 20260504020902 | 60 | 249 | 0.0 | 0.0 | 0.00 | 0.00 | 0.00 | 44 | 1001.6 |
| 20260504015902 | 61 | 255 | 0.0 | 0.0 | 0.00 | 0.00 | 0.00 | 42 | 1001.7 |
| 20260504014902 | 63 | 255 | 0.0 | 0.0 | 0.00 | 0.00 | 0.00 | 40 | 1001.7 |
| 20260504013902 | 64 | 255 | 1.0 | 2.0 | 0.00 | 0.00 | 0.00 | 35 | 1001.8 |
| 20260504012902 | 64 | 259 | 1.0 | 2.0 | 0.00 | 0.00 | 0.00 | 36 | 1001.8 |
| 20260504011902 | 65 | 262 | 1.0 | 2.0 | 0.00 | 0.00 | 0.00 | 35 | 1001.8 |
| 20260504010932 | 66 | 276 | 1.0 | 2.0 | 0.00 | 0.00 | 0.00 | 38 | 1001.9 |
| 20260504005902 | 66 | 270 | 1.0 | 2.0 | 0.00 | 0.00 | 0.00 | 35 | 1001.9 |
| 20260504004903 | 66 | 273 | 1.0 | 2.0 | 0.00 | 0.00 | 0.00 | 34 | 1002.0 |
| 20260504003902 | 66 | 265 | 1.0 | 2.0 | 0.00 | 0.00 | 0.00 | 36 | 1002.0 |
| 20260504002902 | 66 | 279 | 1.0 | 2.0 | 0.00 | 0.00 | 0.00 | 30 | 1002.0 |
| 20260504001902 | 67 | 270 | 0.0 | 0.0 | 0.00 | 0.00 | 0.00 | 32 | 1002.1 |
| 20260504000902 | 68 | 276 | 0.0 | 0.0 | 0.00 | 0.00 | 0.00 | 30 | 1002.1 |
| 20260503235902 | 68 | 268 | 2.0 | 3.0 | 0.00 | 0.00 | 0.00 | 30 | 1002.1 |
| 20260503234932 | 68 | 284 | 2.0 | 3.0 | 0.00 | 0.00 | 0.00 | 28 | 1002.1 |
| 20260503233902 | 69 | 276 | 2.0 | 3.0 | 0.00 | 0.00 | 0.00 | 30 | 1002.1 |
| 20260503232932 | 69 | 264 | 2.0 | 3.0 | 0.00 | 0.00 | 0.00 | 31 | 1002.2 |
| 20260503231902 | 69 | 283 | 2.0 | 3.0 | 0.00 | 0.00 | 0.00 | 27 | 1002.3 |
| 20260503230902 | 69 | 283 | 2.0 | 3.0 | 0.00 | 0.00 | 0.00 | 27 | 1002.4 |
| 20260503225902 | 69 | 251 | 3.0 | 4.0 | 0.00 | 0.00 | 0.00 | 27 | 1002.4 |
| 20260503224902 | 70 | 295 | 1.0 | 2.0 | 0.00 | 0.00 | 0.00 | 28 | 1002.5 |
| 20260503223932 | 69 | 280 | 1.0 | 3.0 | 0.00 | 0.00 | 0.00 | 29 | 1002.5 |
| 20260503222902 | 69 | 295 | 2.0 | 3.0 | 0.00 | 0.00 | 0.00 | 27 | 1002.6 |
| 20260503221902 | 70 | 286 | 2.0 | 3.0 | 0.00 | 0.00 | 0.00 | 28 | 1002.8 |
| 20260503220902 | 70 | 266 | 2.0 | 3.0 | 0.00 | 0.00 | 0.00 | 27 | 1002.7 |
| 20260503215902 | 70 | 277 | 2.0 | 3.0 | 0.00 | 0.00 | 0.00 | 27 | 1002.8 |
| 20260503214902 | 70 | 299 | 3.0 | 5.0 | 0.00 | 0.00 | 0.00 | 27 | 1002.8 |
| 20260503213932 | 70 | 286 | 2.0 | 3.0 | 0.00 | 0.00 | 0.00 | 26 | 1002.8 |
| 20260503212902 | 70 | 294 | 2.0 | 4.0 | 0.00 | 0.00 | 0.00 | 27 | 1002.9 |
| 20260503211902 | 70 | 282 | 2.0 | 3.0 | 0.00 | 0.00 | 0.00 | 28 | 1002.9 |
| 20260503210902 | 70 | 287 | 2.0 | 3.0 | 0.00 | 0.00 | 0.00 | 27 | 1002.9 |
| 20260503205901 | 70 | 283 | 1.0 | 2.0 | 0.00 | 0.00 | 0.00 | 27 | 1003.1 |
| 20260503204902 | 70 | 281 | 3.0 | 4.0 | 0.00 | 0.00 | 0.00 | 27 | 1003.0 |
| 20260503203902 | 70 | 266 | 1.0 | 2.0 | 0.00 | 0.00 | 0.00 | 28 | 1003.1 |
| 20260503202902 | 71 | 291 | 1.0 | 1.0 | 0.00 | 0.00 | 0.00 | 29 | 1003.3 |
| 20260503201932 | 70 | 283 | 2.0 | 3.0 | 0.00 | 0.00 | 0.00 | 29 | 1003.3 |
| 20260503200902 | 70 | 285 | 3.0 | 4.0 | 0.00 | 0.00 | 0.00 | 30 | 1003.3 |
| 20260503195902 | 70 | 281 | 4.0 | 6.0 | 0.00 | 0.00 | 0.00 | 32 | 1003.5 |
| 20260503194902 | 70 | 267 | 3.0 | 4.0 | 0.00 | 0.00 | 0.00 | 32 | 1003.6 |
| 20260503193932 | 71 | 281 | 3.0 | 4.0 | 0.00 | 0.00 | 0.00 | 32 | 1003.7 |
| 20260503192902 | 70 | 335 | 2.0 | 5.0 | 0.00 | 0.00 | 0.00 | 33 | 1003.7 |
| 20260503192002 | 71 | 288 | 3.0 | 4.0 | 0.00 | 0.00 | 0.00 | 33 | 1003.7 |
| 20260503190902 | 72 | 300 | 4.0 | 6.0 | 0.00 | 0.00 | 0.00 | 32 | 1003.7 |
| 20260503185902 | 71 | 286 | 2.0 | 2.0 | 0.00 | 0.00 | 0.00 | 34 | 1003.7 |
| 20260503184902 | 71 | 338 | 2.0 | 4.0 | 0.00 | 0.00 | 0.00 | 36 | 1003.8 |
| 20260503183932 | 70 | 272 | 1.0 | 3.0 | 0.00 | 0.00 | 0.00 | 39 | 1003.9 |
| 20260503182902 | 71 | 285 | 2.0 | 3.0 | 0.00 | 0.00 | 0.00 | 36 | 1004.0 |
| 20260503181902 | 71 | 310 | 0.0 | 2.0 | 0.00 | 0.00 | 0.00 | 37 | 1003.9 |
| 20260503180903 | 71 | 312 | 3.0 | 5.0 | 0.00 | 0.00 | 0.00 | 38 | 1004.1 |
| 20260503175931 | 70 | 329 | 3.0 | 5.0 | 0.00 | 0.00 | 0.00 | 37 | 1004.1 |
| 20260503174902 | 70 | 345 | 3.0 | 5.0 | 0.00 | 0.00 | 0.00 | 41 | 1004.1 |
| 20260503173902 | 70 | 279 | 2.0 | 3.0 | 0.00 | 0.00 | 0.00 | 38 | 1004.3 |
| 20260503172902 | 70 | 15 | 2.0 | 4.0 | 0.00 | 0.00 | 0.00 | 40 | 1004.3 |
| 20260503171902 | 69 | 306 | 3.0 | 11.0 | 0.00 | 0.00 | 0.00 | 42 | 1004.4 |
| 20260503170902 | 68 | 12 | 3.0 | 5.0 | 0.00 | 0.00 | 0.00 | 43 | 1004.5 |
| 20260503150901 | 62 | 312 | 4.0 | 9.0 | 0.00 | 0.00 | 0.00 | 51 | 1004.2 |
| 20260503130933 | 55 | 258 | 0.0 | 0.0 | 0.00 | 0.00 | 0.00 | 58 | 1003.5 |
| 20260503081002 | 55 | 179 | 2.0 | 4.0 | 0.00 | 0.00 | 0.00 | 58 | 1003.9 |
| 20260503072902 | 57 | 211 | 2.0 | 7.0 | 0.00 | 0.00 | 0.00 | 56 | 1004.4 |
| 20260503071902 | 57 | 176 | 0.0 | 1.0 | 0.00 | 0.00 | 0.00 | 55 | 1004.6 |
| 20260503070902 | 58 | 227 | 2.0 | 4.0 | 0.00 | 0.00 | 0.00 | 56 | 1004.7 |
| 20260503054902 | 57 | 227 | 2.0 | 3.0 | 0.00 | 0.00 | 0.00 | 51 | 1006.3 |
| 20260503053901 | 57 | 240 | 1.0 | 2.0 | 0.00 | 0.00 | 0.00 | 51 | 1006.3 |
| 20260503052957 | 57 | 227 | 2.0 | 3.0 | 0.00 | 0.00 | 0.00 | 51 | 1006.4 |
| 20260503051902 | 58 | 224 | 2.0 | 4.0 | 0.00 | 0.00 | 0.00 | 50 | 1006.5 |
| 20260503050902 | 58 | 207 | 2.0 | 4.0 | 0.00 | 0.00 | 0.00 | 51 | 1006.5 |
| 20260503045902 | 58 | 210 | 1.0 | 2.0 | 0.00 | 0.00 | 0.00 | 50 | 1006.6 |
| 20260503044903 | 58 | 197 | 3.0 | 7.0 | 0.00 | 0.00 | 0.00 | 50 | 1006.6 |
| 20260503043931 | 59 | 216 | 3.0 | 5.0 | 0.00 | 0.00 | 0.00 | 49 | 1006.8 |
| 20260503042933 | 59 | 212 | 1.0 | 3.0 | 0.00 | 0.00 | 0.00 | 49 | 1007.0 |
| 20260503041901 | 59 | 187 | 2.0 | 6.0 | 0.00 | 0.00 | 0.00 | 48 | 1007.2 |
| 20260503040902 | 60 | 220 | 1.0 | 2.0 | 0.00 | 0.00 | 0.00 | 47 | 1007.4 |
| 20260503035901 | 60 | 213 | 0.0 | 2.0 | 0.00 | 0.00 | 0.00 | 47 | 1007.6 |